042  
AXUS43 KGID 010702  
MISGRI  
 
GID CWA HOURLY WEATHER ROUNDUP  
NATIONAL WEATHER SERVICE HASTINGS NE  
200 AM CDT MON SEP 01 2014  
 
NOTE: "FAIR" INDICATES FEW OR NO CLOUDS BELOW 12,000 FEET WITH NO  
SIGNIFICANT WEATHER AND/OR OBSTRUCTIONS TO VISIBILITY.  
   
..SOUTH CENTRAL NEBRASKA
 
 
 
CITY SKY/WX TMP DP RH WIND PRES REMARKS  
GRAND ISLAND CLEAR 64 58 80 W13 29.79R  
HASTINGS PTCLDY 63 58 83 W7 29.80R  
KEARNEY CLEAR 63 55 77 CALM 29.82R  
ORD CLEAR 60 56 86 NW10 29.79R  
AURORA PTCLDY 61 61 100 W8 29.79R  
LEXINGTON CLEAR 57 55 92 CALM 29.84R  
HOLDREGE PTCLDY 60 57 88 CALM 29.83R  
HEBRON CLOUDY 67 63 88 CALM 29.77R  
   
..NEBRASKA PANHANDLE
 
 
 
CITY SKY/WX TMP DP RH WIND PRES REMARKS  
CHADRON CLEAR 52 50 93 W3 29.94R  
ALLIANCE CLEAR 48 46 93 CALM 29.94S  
SCOTTSBLUFF CLEAR 50 48 93 NW7 29.97R  
SIDNEY CLEAR 51 45 79 W10 29.99R  
   
..WESTERN AND NORTH CENTRAL NEBRASKA
 
 
 
CITY SKY/WX TMP DP RH WIND PRES REMARKS  
VALENTINE CLEAR 55 53 93 NW8 29.84R  
AINSWORTH CLEAR 55 54 97 NW9 29.83S  
ONEILL PTCLDY 62 61 97 NW9 29.77S  
BROKEN BOW CLEAR 58 55 90 NW9 29.83R  
IMPERIAL PTCLDY 56 50 80 NW5 29.93R  
NORTH PLATTE CLEAR 54 51 90 W6 29.89R  
MCCOOK PTCLDY 60 54 80 NW6 29.88R  
   
..EASTERN NEBRASKA
 
 
 
CITY SKY/WX TMP DP RH WIND PRES REMARKS  
NORFOLK CLEAR 62 60 93 W9 29.73R  
SO SIOUX CITY MOCLDY 63 62 97 CALM 29.70R  
TEKAMAH CLOUDY 64 63 96 SE6 29.70S  
ALBION CLEAR 62 57 85 W6 29.77R  
OMAHA EPPLEY CLOUDY 70 64 81 S18 29.71R  
OFFUTT AFB CLOUDY 68 68 99 S12 29.73R  
MILLARD CLOUDY 69 66 88 S6 29.73R  
LINCOLN CLOUDY 67 65 93 S5 29.74R  
NEBRASKA CITY CLOUDY 66 66 100 S16 29.74F  
BEATRICE CLOUDY 68 65 92 S13 29.77R  
FALLS CITY LGT RAIN 68 65 90 S8 29.79R  
   
..NORTHERN KANSAS
 
 
 
CITY SKY/WX TMP DP RH WIND PRES REMARKS  
GOODLAND CLEAR 56 53 90 NW6 29.95R  
HILL CITY CLEAR 62 59 90 NW7 29.84R  
NORTON SUNNY 61 54 77 NW7 29.82S  
PHILLIPSBURG CLEAR 64 64 100 W7 29.82R  
SMITH CENTER CLEAR 64 63 94 NW7 29.81S  
HAYS MOCLDY 64 59 82 NW5 29.80S  
RUSSELL CLOUDY 65 63 93 S7 29.78S  
CONCORDIA CLOUDY 69 68 96 CALM 29.76S  
SALINA RAIN 64 61 90 S23 29.78F  
TOPEKA TSTM 68 67 96 S7 29.89R FOG  
 
CLICK HERE TO GO TO PREVIOUS BULLETINS.

The Nexlab NE Page
The Nexlab KS Page Main Text Page